Weather History for KAEX - November, 2013

Change the Weather History Date:

Saturday, November 2, 2013

  Actual Average Record
Temperature  
Mean Temperature 60 °F 62 °F  
Max Temperature 71 °F 75 °F 87 °F (1961)
Min Temperature 49 °F 49 °F 30 °F (1963)
Degree Days  
Heating Degree Days 5 5  
Month to date heating degree days 7 10  
Since 1 July heating degree days 50 83  
Cooling Degree Days 0 2  
Month to date cooling degree days 0 4  
Year to date cooling degree days 2589 2490  
Growing Degree Days 11 (Base 50)    
Moisture  
Dew Point 48 °F    
Average Humidity 61    
Maximum Humidity 93    
Minimum Humidity 28    
Precipitation  
Precipitation T in 0.12 in 3.07 in (1977)
Month to date precipitation T 0.17  
Year to date precipitation 47.87 44.48  
Snow  
Snow 0.00 in - 0.00 in ()
Month to date snowfall 0.0  
Since 1 July snowfall 0.0  
Since 1 September snowfall 0.0  
Snow Depth 0.00 in    
Sea Level Pressure  
Sea Level Pressure 30.09 in    
Wind  
Wind Speed 8 mph (NW)    
Max Wind Speed 21 mph    
Max Gust Speed 29 mph    
Visibility 10 miles    
Events      
T = Trace of Precipitation, MM = Missing Value Source: NWS Daily Summary

Daily Weather History Graph

Daily Weather History Graph

Search for Another Location

Airport or City:

Trip Planner

Search our weather history database for the weather conditions in past years. The results will help you decide how hot, cold, wet, or windy it might be!

Date:

Astronomy

Nov. 02, 2013 Rise Set
Actual Time 7:26 AM CDT 6:20 PM CDT
Civil Twilight 7:01 AM CDT 6:45 PM CDT
Nautical Twilight 6:33 AM CDT 7:14 PM CDT
Astronomical Twilight 6:04 AM CDT 7:42 PM CDT
Moon 6:27 AM CDT (11/2) 5:50 PM CDT (11/2)
Length of Visible Light 11h 43m
Length of Day
10h 53m
Waning Crescent, 1% of the Moon is Illuminated
Nov 2
Waning Crescent
Nov 3
New
Nov 9
First Quarter
Nov 17
Full
Nov 25
Last Quarter

Hourly Weather History & Observations

Time (CDT) Temp. Dew Point Humidity Pressure Visibility Wind Dir Wind Speed Gust Speed Precip Events Conditions
12:31 AM 53.6 °F 53.6 °F 100% 29.93 in 2.5 mi Calm Calm - N/A   Partly Cloudy
12:40 AM 55.4 °F 55.4 °F 100% 29.93 in 10.0 mi NW 3.5 mph - N/A   Mostly Cloudy
12:53 AM 57.0 °F 55.9 °F 96% 29.96 in 10.0 mi WNW 5.8 mph - N/A   Overcast
1:53 AM 60.1 °F 55.9 °F 86% 29.99 in 10.0 mi SSW 3.5 mph - 0.00 in   Overcast
2:53 AM 59.0 °F 55.9 °F 90% 29.98 in 10.0 mi Calm Calm - 0.00 in   Overcast
3:53 AM 57.9 °F 55.0 °F 90% 30.00 in 10.0 mi WNW 4.6 mph - N/A   Partly Cloudy
4:53 AM 57.0 °F 55.0 °F 93% 30.01 in 10.0 mi West 5.8 mph - N/A   Partly Cloudy
5:53 AM 55.9 °F 54.0 °F 93% 30.04 in 10.0 mi NW 4.6 mph - N/A   Clear
6:53 AM 55.0 °F 51.1 °F 86% 30.07 in 10.0 mi NW 8.1 mph - N/A   Clear
7:53 AM 53.1 °F 50.0 °F 89% 30.09 in 10.0 mi NW 5.8 mph - N/A   Clear
8:53 AM 55.9 °F 50.0 °F 80% 30.12 in 10.0 mi NNW 8.1 mph - N/A   Clear
9:53 AM 60.1 °F 48.0 °F 64% 30.14 in 10.0 mi North 10.4 mph 19.6 mph N/A   Clear
10:53 AM 64.9 °F 46.0 °F 50% 30.16 in 10.0 mi North 11.5 mph - N/A   Clear
11:53 AM 66.9 °F 45.0 °F 45% 30.16 in 10.0 mi NW 13.8 mph 17.3 mph N/A   Clear
12:53 PM 70.0 °F 41.0 °F 35% 30.13 in 10.0 mi NNW 11.5 mph 21.9 mph N/A   Clear
1:53 PM 71.1 °F 37.9 °F 30% 30.10 in 10.0 mi NNW 11.5 mph 21.9 mph N/A   Clear
2:53 PM 70.0 °F 35.1 °F 28% 30.08 in 10.0 mi NW 19.6 mph 24.2 mph N/A   Clear
3:53 PM 70.0 °F 39.0 °F 32% 30.08 in 10.0 mi NW 13.8 mph - N/A   Clear
4:53 PM 68.0 °F 39.9 °F 36% 30.09 in 10.0 mi NNW 13.8 mph 20.7 mph N/A   Clear
5:53 PM 64.9 °F 42.1 °F 43% 30.11 in 10.0 mi NNW 8.1 mph - N/A   Clear
6:53 PM 57.0 °F 45.0 °F 64% 30.14 in 10.0 mi NNW 3.5 mph - N/A   Clear
7:53 PM 55.0 °F 45.0 °F 69% 30.17 in 10.0 mi NNW 3.5 mph - N/A   Clear
8:53 PM 53.1 °F 45.0 °F 74% 30.19 in 10.0 mi NNW 4.6 mph - N/A   Clear
9:53 PM 52.0 °F 45.0 °F 77% 30.21 in 10.0 mi NNW 4.6 mph - N/A   Clear
10:53 PM 51.1 °F 45.0 °F 80% 30.22 in 10.0 mi North 3.5 mph - N/A   Clear
11:53 PM 51.1 °F 45.0 °F 80% 30.23 in 10.0 mi North 5.8 mph - N/A   Clear